Regional Weather Roundup
Issued by NWS Albany, NY

Home | Current Version | Previous Version | Text Only | Print | Product List | Glossary On
Versions: 1 2 3 4 5 6 7 8 9 10 11 12 13 14 15 16 17 18 19 20 21 22 23 24 25 26 27 28 29 30 31 32 33 34 35 36 37 38 39 40 41 42 43 44 45 46 47 48 49 50
000
ASUS41 KALY 230110
RWRALY

NEW YORK STATE HOURLY WEATHER ROUNDUP
NATIONAL WEATHER SERVICE ALBANY NY
900 PM EDT FRI AUG 22 2014

NOTE: "FAIR" INDICATES FEW OR NO CLOUDS BELOW 12,000 FEET WITH NO
SIGNIFICANT WEATHER AND/OR NO OBSTRUCTIONS TO VISIBILITY.

NYZ032-033-038>043-046>054-057>066-NYZ062>081-230200-
EAST


CITY           SKY/WX    TMP DP  RH WIND       PRES   REMARKS
ALBANY         CLOUDY    66  61  84 CALM      30.09R
GLENS FALLS    NOT AVBL
POUGHKEEPSIE   CLOUDY    69  62  78 CALM      30.06R
NEWBURGH       CLOUDY    64  64 100 VRB6      30.07S
MONTGOMERY     CLOUDY    66  63  90 N3        30.07R
WHITE PLAINS   MOCLDY    68  61  78 E5        30.05S
ISLIP          MOCLDY    69  60  73 E8        30.03S
NEW YORK CITY  CLOUDY    71  59  65 E8        30.04R
CENTRAL PARK   CLOUDY    70  58  65 E7        30.07R
$$

NYZ005>009-017-018-044>046-055-056-230200-
CENTRAL


CITY           SKY/WX    TMP DP  RH WIND       PRES   REMARKS
FULTON         CLOUDY    68  64  87 VRB5      30.01R
SYRACUSE       PTCLDY    66  63  90 NE8       30.01R
ROME           CLOUDY    65  60  84 E9        30.07R
ELMIRA         LGT RAIN  73  68  84 E6        30.00R
BINGHAMTON     CLOUDY    66  65  96 SE8       30.05R
MONTICELLO     MOCLDY    63  61  94 E8        30.10R
$$

NYZ026>034-041>043-230200-
NORTH


CITY           SKY/WX    TMP DP  RH WIND       PRES   REMARKS
WATERTOWN      MOCLDY    69  62  78 SE6       30.02R
FORT DRUM      NOT AVBL
MASSENA        CLOUDY    67  62  84 E7        30.06S
SARANAC LAKE   PTCLDY    59  57  93 NE6       30.10R
PLATTSBURGH    CLOUDY    63  61  93 SW3       30.11R
$$

NYZ001>004-010>016-019>021-230200-
WEST


CITY           SKY/WX    TMP DP  RH WIND       PRES   REMARKS
NIAGARA FALLS  PTCLDY    69  64  84 NE6       30.00R
BUFFALO        MOCLDY    72  65  78 NE8       30.00R
DUNKIRK        CLEAR     69  66  90 CALM      29.99R
JAMESTOWN      CLEAR     66  63  88 NW6       30.03R
WELLSVILLE     MOCLDY    70  63  78 E7        30.05R
ROCHESTER      MOCLDY    72  65  78 E6        30.01R
PENN YAN       PTCLDY    68  66  93 CALM      30.02R
$$

             KEY
       WCI = WIND CHILL INDEX
       VSB = VISIBILITY
       HX  = HEAT INDEX
$$



USA.gov is the U.S. government's official web portal to all federal, state and local government web resources and services.